TimeCDT,TemperatureF,Dew PointF,Humidity,Sea Level PressureIn,VisibilityMPH,Wind Direction,Wind SpeedMPH,Gust SpeedMPH,PrecipitationIn,Events,Conditions,WindDirDegrees,DateUTC
12:56 AM,70.0,68.0,93,29.94,9.0,North,3.5,-,N/A,,Clear,360,2013-07-08 05:56:00
1:56 AM,69.1,66.0,90,29.94,10.0,Calm,Calm,-,N/A,,Clear,0,2013-07-08 06:56:00
2:56 AM,66.9,64.9,93,29.94,10.0,ENE,3.5,-,N/A,,Clear,60,2013-07-08 07:56:00
3:56 AM,64.9,64.0,97,29.93,10.0,North,3.5,-,N/A,,Clear,10,2013-07-08 08:56:00
4:37 AM,66.2,62.6,88,29.95,10.0,NNE,3.5,-,N/A,Thunderstorm,Clear,20,2013-07-08 09:37:00
4:46 AM,66.2,62.6,88,29.95,10.0,NNE,3.5,-,N/A,,Partly Cloudy,20,2013-07-08 09:46:00
4:56 AM,64.0,62.1,93,29.93,10.0,Calm,Calm,-,N/A,,Partly Cloudy,0,2013-07-08 09:56:00
5:56 AM,64.0,61.0,90,29.93,10.0,NNE,3.5,-,N/A,,Partly Cloudy,30,2013-07-08 10:56:00
6:56 AM,66.0,62.1,87,29.95,10.0,Calm,Calm,-,N/A,,Partly Cloudy,0,2013-07-08 11:56:00
7:56 AM,70.0,63.0,78,29.97,10.0,Calm,Calm,-,N/A,,Partly Cloudy,0,2013-07-08 12:56:00
8:56 AM,73.9,66.9,79,29.98,10.0,ENE,5.8,-,N/A,,Scattered Clouds,70,2013-07-08 13:56:00
9:56 AM,77.0,70.0,79,29.99,10.0,ESE,6.9,-,N/A,,Partly Cloudy,110,2013-07-08 14:56:00
10:56 AM,80.1,72.0,76,29.98,10.0,ESE,9.2,-,N/A,,Scattered Clouds,110,2013-07-08 15:56:00
11:56 AM,82.0,72.0,71,29.98,10.0,ENE,6.9,-,N/A,,Mostly Cloudy,70,2013-07-08 16:56:00
12:56 PM,82.9,72.0,69,29.97,10.0,Variable,4.6,-,N/A,,Mostly Cloudy,0,2013-07-08 17:56:00
1:56 PM,84.9,72.0,65,29.96,10.0,ENE,6.9,-,N/A,,Scattered Clouds,70,2013-07-08 18:56:00
2:56 PM,86.0,71.1,61,29.95,10.0,ENE,8.1,-,N/A,,Scattered Clouds,70,2013-07-08 19:56:00
3:56 PM,86.0,71.1,61,29.94,10.0,East,9.2,-,N/A,,Scattered Clouds,100,2013-07-08 20:56:00
4:56 PM,84.9,70.0,61,29.94,10.0,ESE,11.5,-,N/A,,Mostly Cloudy,120,2013-07-08 21:56:00
5:56 PM,86.0,69.1,57,29.92,10.0,SSE,10.4,-,N/A,,Mostly Cloudy,150,2013-07-08 22:56:00
6:56 PM,86.0,69.1,57,29.91,10.0,SSE,10.4,-,N/A,,Scattered Clouds,150,2013-07-08 23:56:00
7:56 PM,84.9,68.0,57,29.90,10.0,SE,8.1,-,N/A,,Mostly Cloudy,140,2013-07-09 00:56:00
8:56 PM,82.0,71.1,69,29.90,10.0,East,6.9,-,N/A,,Mostly Cloudy,90,2013-07-09 01:56:00
9:56 PM,82.0,71.1,69,29.91,10.0,SE,4.6,-,N/A,,Mostly Cloudy,140,2013-07-09 02:56:00
10:56 PM,81.0,70.0,69,29.88,10.0,SSE,8.1,-,N/A,,Mostly Cloudy,160,2013-07-09 03:56:00
11:56 PM,78.1,69.1,74,29.87,10.0,South,6.9,-,N/A,,Scattered Clouds,170,2013-07-09 04:56:00